[[{"header":{"parameterUnit":"m.s-1","parameterCategory":1,"la1":30.2991,"la2":30.254,"lo1":-89.0895,"lo2":-89.0444,"dy":0.0017,"dx":0.0017,"nx":28,"ny":28,"refTime":"2024-11-27T03:00:00:Z","depth":0,"parameterNumber":2,"parameterNumberName":"U-component_of_WINDS"},"data":[0,0,0,0,0,0,0,0,0,0,0,0,0,0,0,0,0,0,0,0,0,0,0,0,0,0,0,0,0,0,0,0,0,0,0,0,0,0,0,0,0,0,0,0,0,0,0,0,0,0,0,0,0,0,0,0,0,0,2.5357,2.5359,0,2.5539,2.5541,2.5543,2.5547,2.5544,2.5542,2.554,2.573,2.5737,2.5745,0,0,0,0,0,0,0,0,0,0,0,0,0,2.5018,2.5024,2.5357,2.5359,2.5361,2.5538,2.5541,2.5543,2.5547,2.5544,2.5542,2.5539,2.5728,2.5737,2.5745,0,0,0,0,0,0,0,0,0,0,0,0,0,2.5179,2.5026,2.5356,2.5384,2.5389,2.5538,2.5541,2.5544,2.5548,2.5544,2.5541,2.5538,2.5725,2.5736,2.5746,2.5881,0,0,2.5779,2.5784,0,0,0,0,0,0,0,0,2.517,2.5192,2.5378,2.5383,2.5388,2.5516,2.5491,2.5657,2.5549,2.5487,2.554,2.5536,2.5662,2.5678,2.572,2.589,2.5898,2.578,2.5787,2.5791,2.5794,0,0,0,0,0,0,0,2.5159,2.5184,2.5429,2.5381,2.5387,2.539,2.5409,2.5523,2.5592,2.5493,2.5493,2.5514,2.5664,2.5709,2.5724,2.5901,2.578,2.5789,2.5796,2.58,2.6194,2.6197,0,0,0,0,0,0,2.5141,2.5174,2.5423,2.5434,2.5268,2.5398,2.542,2.5479,2.5591,2.5604,2.5517,2.5514,2.5693,2.5712,2.5731,2.5898,2.5791,2.5801,2.5808,2.619,2.6194,2.6199,0,0,0,0,0,0,2.5134,2.5163,2.5416,2.5305,2.5337,2.5408,2.5474,2.5484,2.5529,2.5609,2.5622,2.555,2.5691,2.5716,2.5844,2.5904,2.5806,2.5816,2.6185,2.6191,2.6197,2.6231,0,0,0,0,0,0,2.5124,2.5161,2.5211,2.5306,2.5343,2.5524,2.5478,2.549,2.5547,2.5545,2.5643,2.5657,2.569,2.5828,2.5855,2.5917,2.5824,2.618,2.6188,2.6195,2.6225,2.6237,2.6248,0,0,0,0,0,2.5112,2.5214,2.5214,2.5244,2.5407,2.5527,2.5549,2.5584,2.5552,2.5604,2.5656,2.5653,2.5893,2.5841,2.5871,2.5938,2.6176,2.6185,2.6194,2.6219,2.6235,2.6248,0,0,0,0,0,0,2.5126,2.5227,2.5228,2.5363,2.5436,2.5528,2.5595,2.5599,2.5684,2.5678,2.5719,2.5742,2.587,2.5917,2.5857,2.6076,2.6031,2.6047,2.604,2.6055,2.6067,2.6053,2.5833,0,0,0,0,0,2.5144,2.5232,2.5316,2.5427,2.5464,2.5523,2.5577,2.5597,2.5676,2.5708,2.5769,2.5846,2.594,2.6,2.609,2.6231,2.6254,2.6293,2.6304,2.6313,2.6326,2.6407,2.6426,2.6228,2.6228,2.6228,0,0,2.5184,2.525,2.5303,2.5432,2.5491,2.5583,2.5549,2.5647,2.5717,2.5723,2.5848,2.5896,2.5985,2.6121,2.6184,2.6164,2.6386,2.6325,2.6331,2.634,2.6418,2.6437,2.6454,2.6234,2.6233,2.6232,0,0,2.5302,2.536,2.546,2.5521,2.5611,2.565,2.5674,2.5766,2.5798,2.5923,2.5931,2.6014,2.6173,2.6237,2.6291,2.6436,2.6438,2.6465,2.6526,2.6604,2.662,2.6634,2.6688,2.6706,2.6477,2.6477,2.6477,0,2.534,2.5477,2.5511,2.561,2.5668,2.5677,2.578,2.5837,2.5953,2.5994,2.5969,2.617,2.6231,2.6383,2.6419,2.6461,2.6492,2.6454,2.6614,2.6629,2.6643,2.6694,2.6714,2.648,2.648,2.6479,2.6479,0,2.5521,2.5616,2.5686,2.5797,2.5862,2.5962,2.6014,2.6076,2.6092,2.6134,2.6264,2.6337,2.6443,2.6481,2.6497,2.6636,2.6621,2.6605,2.6562,2.6664,2.6713,2.6733,2.6484,2.6483,2.6482,2.6482,0,0,2.5652,2.5781,2.5807,2.5858,2.5959,2.6035,2.6137,2.6239,2.6293,2.6373,2.6461,2.6596,2.6583,2.6643,2.6667,2.6736,2.6849,2.6712,2.6715,2.6736,2.701,2.7022,2.7044,2.685,2.6854,2.6857,2.7003,0,2.5783,2.5963,2.5997,2.6154,2.6244,2.6255,2.6345,2.6418,2.646,2.6544,2.6592,2.6688,2.6661,2.6698,2.6767,2.682,2.6905,2.681,2.6935,2.6939,2.6913,2.707,2.7082,2.7216,2.7022,2.7025,2.7028,0,2.5959,2.6043,2.6209,2.63,2.6339,2.6419,2.6517,2.6596,2.668,2.6707,2.6775,2.6792,2.6901,2.6852,2.7004,2.6939,2.6992,2.7026,2.7032,2.7046,2.699,2.7089,2.7259,2.7279,2.7058,2.7056,2.7054,0,2.6041,2.6195,2.6315,2.6358,2.6467,2.6523,2.6572,2.6652,2.6712,2.6799,2.6839,2.6937,2.6991,2.7068,2.7112,2.7072,2.7261,2.7215,2.7288,2.7287,2.7328,2.7325,2.751,2.736,2.736,2.736,2.7359,0,2.6184,2.6285,2.6353,2.6427,2.6542,2.6582,2.6695,2.6743,2.6815,2.69,2.6916,2.6996,2.7048,2.7136,2.7171,2.7293,2.7317,2.7343,2.7351,2.7342,2.7339,2.7378,2.7371,2.7365,2.7364,2.7363,2.7362,0,2.6294,2.6343,2.6475,2.6567,2.6593,2.6674,2.6754,2.6828,2.6871,2.6978,2.7006,2.7074,2.7179,2.723,2.736,2.7384,2.7522,2.7524,2.7493,2.7497,2.7567,2.7561,2.7785,2.7818,2.7645,2.7646,2.7648,0,2.6382,2.6461,2.6562,2.6619,2.6669,2.6761,2.6823,2.6866,2.693,2.7033,2.7095,2.72,2.7286,2.7453,2.7515,2.7616,2.7621,2.7693,2.7636,2.7625,2.7624,2.7619,2.7628,2.7703,2.7705,2.7706,2.7707,0,2.6535,2.6556,2.6643,2.674,2.6813,2.6892,2.6969,2.7016,2.7072,2.7144,2.725,2.7317,2.745,2.7555,2.766,2.7712,2.7721,2.7725,2.7747,2.7739,2.7719,2.7732,2.7522,2.7719,2.7718,2.7717,2.7717,2.7716,2.6638,2.6709,2.6792,2.6889,2.6952,2.7025,2.7099,2.7151,2.724,2.7351,2.7372,2.7486,2.7571,2.7712,2.7768,2.7859,2.7843,2.7875,2.7884,2.7891,2.7896,2.7703,2.7878,2.7878,2.7878,2.7878,2.7877,0,2.6792,2.6846,2.6936,2.7044,2.7121,2.7121,2.7207,2.7273,2.7372,2.745,2.7535,2.7659,2.7761,2.7832,2.7937,2.7996,2.8003,2.8023,2.8019,2.8032,2.7903,2.7874,2.8016,2.8016,2.8016,2.8016,2.8016,2.8016,2.6882,2.7002,2.7034,2.7187,2.7241,2.7351,2.7401,2.7469,2.7531,2.7669,2.7754,2.7799,2.7875,2.7986,2.808,2.8099,2.8137,2.8158,2.8176,2.8055,2.804,2.8027,2.7999,2.8165,2.8165,2.8297,2.8299,2.83]},{"header":{"parameterUnit":"m.s-1","parameterCategory":1,"la1":30.2991,"la2":30.254,"lo1":-89.0895,"lo2":-89.0444,"dy":0.0017,"dx":0.0017,"nx":28,"ny":28,"refTime":"2024-11-27T03:00:00:Z","depth":0,"parameterNumber":3,"parameterNumberName":"V-component_of_WINDS"},"data":[0,0,0,0,0,0,0,0,0,0,0,0,0,0,0,0,0,0,0,0,0,0,0,0,0,0,0,0,0,0,0,0,0,0,0,0,0,0,0,0,0,0,0,0,0,0,0,0,0,0,0,0,0,0,0,0,0,0,3.5524,3.5526,0,3.5719,3.5721,3.5723,3.5763,3.5762,3.576,3.5759,3.5956,3.5962,3.5969,0,0,0,0,0,0,0,0,0,0,0,0,0,3.5185,3.5191,3.5523,3.5526,3.5528,3.5718,3.5721,3.5723,3.5763,3.5761,3.576,3.5758,3.5954,3.5962,3.597,0,0,0,0,0,0,0,0,0,0,0,0,0,3.5351,3.5193,3.5523,3.5571,3.5577,3.5718,3.5721,3.5724,3.5764,3.5761,3.5759,3.5757,3.5951,3.5961,3.5971,3.6076,0,0,3.6001,3.6005,0,0,0,0,0,0,0,0,3.5342,3.5363,3.5562,3.5568,3.5575,3.5714,3.5674,3.5842,3.5764,3.5693,3.5759,3.5756,3.5877,3.5893,3.5934,3.6085,3.6094,3.6002,3.6008,3.6012,3.6015,0,0,0,0,0,0,0,3.533,3.5355,3.5601,3.5564,3.5573,3.5583,3.5604,3.5706,3.5795,3.5699,3.5702,3.5725,3.5881,3.5925,3.5939,3.6097,3.6002,3.6011,3.6017,3.6021,3.6347,3.6349,0,0,0,0,0,0,3.531,3.5345,3.5594,3.5606,3.5451,3.5591,3.5614,3.5672,3.5794,3.5811,3.5727,3.5726,3.5909,3.5928,3.5946,3.608,3.6012,3.6022,3.6027,3.6344,3.6347,3.635,0,0,0,0,0,0,3.5303,3.5332,3.5586,3.5477,3.551,3.5599,3.5663,3.5677,3.5721,3.5815,3.5831,3.5756,3.5908,3.5932,3.6044,3.6088,3.6026,3.6035,3.6341,3.6345,3.6349,3.6347,0,0,0,0,0,0,3.5293,3.5329,3.537,3.5478,3.5516,3.5681,3.5666,3.5682,3.5739,3.574,3.5846,3.5862,3.5908,3.6029,3.6054,3.61,3.6043,3.6337,3.6343,3.6347,3.6344,3.6351,3.6356,0,0,0,0,0,3.5281,3.5361,3.5372,3.5402,3.5569,3.5684,3.5706,3.5758,3.5742,3.5784,3.5845,3.5858,3.6078,3.6041,3.6069,3.6118,3.6335,3.6341,3.6347,3.6341,3.6349,3.6356,0,0,0,0,0,0,3.5255,3.5376,3.5389,3.5507,3.5585,3.569,3.5745,3.5765,3.5848,3.5846,3.5906,3.593,3.6039,3.6089,3.6045,3.6228,3.6206,3.6218,3.6191,3.62,3.6206,3.6193,3.6051,0,0,0,0,0,3.5263,3.5347,3.5447,3.5541,3.558,3.5656,3.5708,3.5741,3.5824,3.5857,3.5926,3.6005,3.6093,3.6149,3.6234,3.6351,3.6376,3.6399,3.6405,3.641,3.642,3.6488,3.65,3.637,3.637,3.637,0,0,3.5281,3.5357,3.5406,3.5538,3.5603,3.5688,3.5683,3.5773,3.5837,3.5871,3.5982,3.6034,3.6127,3.6243,3.6297,3.6288,3.6461,3.6418,3.6421,3.6429,3.6495,3.6508,3.6519,3.6374,3.6374,3.6373,0,0,3.5357,3.5422,3.5509,3.5574,3.5672,3.5722,3.5743,3.5846,3.5883,3.5996,3.6023,3.61,3.6248,3.6314,3.6367,3.647,3.6486,3.6495,3.6529,3.6595,3.6605,3.6614,3.6653,3.6666,3.6505,3.6505,3.6505,0,3.5366,3.5497,3.5551,3.5641,3.5699,3.5734,3.5823,3.5883,3.6003,3.6043,3.6031,3.622,3.6285,3.6417,3.6443,3.6483,3.651,3.6484,3.6599,3.6609,3.6619,3.6657,3.6671,3.6505,3.6505,3.6505,3.6505,0,3.5505,3.5594,3.5653,3.577,3.5834,3.5923,3.5991,3.6049,3.6077,3.6129,3.6244,3.6322,3.6426,3.6459,3.6486,3.6596,3.6588,3.6587,3.6566,3.6631,3.6668,3.6682,3.6506,3.6506,3.6506,3.6506,0,0,3.5571,3.5718,3.5738,3.5793,3.5904,3.5975,3.6065,3.6167,3.6218,3.6299,3.6378,3.6503,3.6504,3.6564,3.6599,3.6656,3.6735,3.6649,3.6652,3.6664,3.6864,3.6866,3.6881,3.6746,3.6749,3.6752,3.6857,0,3.5662,3.5826,3.5878,3.6015,3.61,3.6135,3.6214,3.6291,3.6341,3.642,3.6476,3.6565,3.6557,3.6594,3.6652,3.6713,3.6777,3.6706,3.6821,3.6824,3.6799,3.69,3.6902,3.6998,3.6871,3.6874,3.6875,0,3.5791,3.5877,3.6023,3.6125,3.6163,3.6233,3.6332,3.6407,3.6495,3.6528,3.6596,3.6627,3.6723,3.6696,3.683,3.6781,3.6831,3.6868,3.6873,3.6887,3.6855,3.692,3.7029,3.7044,3.6898,3.6896,3.6895,0,3.5827,3.5979,3.6087,3.6132,3.6254,3.6303,3.6356,3.6442,3.6501,3.6586,3.6626,3.6721,3.6773,3.6846,3.6903,3.6877,3.7033,3.7009,3.7064,3.7063,3.7097,3.7095,3.7219,3.7125,3.7125,3.7124,3.7124,0,3.5926,3.6014,3.6106,3.6172,3.6272,3.6331,3.6429,3.6483,3.656,3.6638,3.6673,3.6745,3.6814,3.6895,3.6939,3.7045,3.7068,3.7098,3.7109,3.7097,3.7093,3.7132,3.7127,3.7128,3.7127,3.7127,3.7126,0,3.5984,3.6049,3.6169,3.6275,3.6304,3.6373,3.6464,3.653,3.6582,3.668,3.6707,3.6788,3.6886,3.6949,3.7073,3.7103,3.722,3.7228,3.7191,3.7197,3.7249,3.7244,3.7404,3.7429,3.7316,3.7317,3.7317,0,3.6044,3.6113,3.6227,3.6282,3.6336,3.6424,3.6485,3.6545,3.6606,3.6713,3.6767,3.6867,3.6951,3.7106,3.7176,3.7272,3.7284,3.7333,3.7298,3.7284,3.7288,3.7284,3.7293,3.7339,3.734,3.7341,3.7342,0,3.6143,3.6172,3.6258,3.6357,3.6429,3.6509,3.6589,3.6632,3.6706,3.6773,3.6875,3.694,3.7068,3.7168,3.727,3.7324,3.7347,3.7352,3.737,3.7359,3.7336,3.7352,3.7209,3.7348,3.7348,3.7347,3.7347,3.7347,3.6206,3.627,3.6361,3.6457,3.6524,3.6598,3.6666,3.6727,3.6813,3.6923,3.6953,3.7059,3.7147,3.7287,3.7344,3.7428,3.7422,3.7447,3.7455,3.7461,3.7463,3.7321,3.7446,3.7446,3.7446,3.7446,3.7446,0,3.631,3.637,3.6458,3.6569,3.6645,3.6659,3.6749,3.6811,3.6905,3.6985,3.7068,3.7185,3.7283,3.7361,3.7461,3.7514,3.7527,3.7538,3.7536,3.7549,3.7461,3.7437,3.7527,3.7527,3.7527,3.7527,3.7527,3.7527,3.6373,3.6483,3.6523,3.6667,3.6727,3.6832,3.6883,3.6952,3.7017,3.7147,3.7229,3.7279,3.736,3.7466,3.7557,3.7577,3.7614,3.7624,3.7647,3.7564,3.7555,3.7547,3.7524,3.7631,3.7631,3.7729,3.773,3.773]}]]